Regional Weather Roundup
Issued by NWS Wakefield, VA

Home | Current Version | Previous Version | Graphics & Text | Print | Product List | Glossary On
Versions: 1 2 3 4 5 6 7 8 9 10 11 12 13 14 15 16 17 18 19 20 21 22 23 24 25 26 27 28 29 30 31 32 33 34 35 36 37 38 39 40 41 42 43 44 45 46 47 48 49 50
000
ASUS41 KAKQ 250714
RWRAKQ

REGIONAL WEATHER ROUNDUP
NATIONAL WEATHER SERVICE WAKEFIELD VA
300 AM EDT SAT APR 25 2015

Note: "fair" indicates few or no clouds below 12,000 feet with no
significant weather and/or obstructions to visibility. * = Denotes
station may not report precipitation (e.g., rain,snow,etc.),
thunder or fog.

VAZ042-051-052>054-056-250800-
NORTHERN VIRGINIA

CITY           SKY/WX    TMP DP  RH WIND       PRES   REMARKS
WASH NATIONAL  PTCLDY    49  25  39 N5        29.97F
DULLES         PTCLDY    39  27  62 NW3       29.97F
FORT BELVOIR   PTCLDY    38  32  80 W2        29.97S
QUANTICO       CLEAR     50  25  37 N12       29.97F
FREDERICKSBRG* CLEAR     42  32  68 SW8       29.95S
STAFFORD*      CLEAR     37  29  74 CALM      30.00S
WARRENTON      CLEAR     42  33  71 N6        29.96S
CULPEPER*      FAIR      39  34  81 CALM      29.97R
MANASSAS*      CLEAR     36  34  93 CALM      29.97F
LEESBURG*      CLEAR     39  32  75 CALM      29.98S
WINCHESTER     CLEAR     39  23  52 CALM      29.97S
FRONT ROYAL*   FAIR      37  28  70 CALM      29.95F
LURAY*         FAIR      39  32  75 CALM      29.95S
$$

VAZ048-049-060>072-079>083-250800-
CENTRAL AND SOUTH CENTRAL VIRGINIA

CITY           SKY/WX    TMP DP  RH WIND       PRES   REMARKS
RICHMOND       CLOUDY    48  33  56 NE7       29.94F
CHESTERFIELD*  PTSUNNY   45  27  49 CALM      29.96S
PETERSBURG*    PTCLDY    39  38  95 CALM      29.96R
HANOVER        CLOUDY    40  33  76 CALM      29.96F
TAPPAHANNOCK*  CLEAR     37  29  73 CALM      29.97F
QUINTON*       CLOUDY    42  37  83 CALM      29.95F
CHARLOTTSVILLE CLOUDY    45  33  63 CALM      29.95S
GORDONSVILLE*  CLOUDY    39  34  81 CALM      29.95S
ORANGE*        MOCLDY    39  34  81 CALM      29.97R
LOUISA*        CLOUDY    43  34  70 CALM      29.94S
BUMPASS*       CLOUDY    41  33  72 CALM      29.95F
FARMVILLE*     CLOUDY    47  34  60 CALM      29.94S
CREWE*         CLOUDY    40  35  84 CALM      29.94F
FORT PICKETT*  FAIR      43  32  64 E5        29.94S
CHASE CITY*    FAIR      46  40  79 CALM      29.94S
CLARKSVILLE*   FAIR      43  39  87 CALM      29.93S
SOUTH HILL*    MOCLDY    44  35  72 CALM      29.99S
LAWRENCEVILLE* FAIR      47  32  56 CALM      29.93S
EMPORIA*       PTCLDY    43  34  70 NW6       29.95S
$$

VAZ088>098-250800-
SOUTHEAST VIRGINIA

CITY           SKY/WX    TMP DP  RH WIND       PRES   REMARKS
NORFOLK        PTCLDY    49  37  63 S6        29.94F
VIRGINIA BEACH MOCLDY    48  37  65 CALM      29.94F
NORFOLK NAVAL  PTCLDY    52  39  61 S6        29.95F
WEST POINT*    PTCLDY    37  33  85 CALM      29.96F
SALUDA*        FAIR      38  35  86 CALM      29.95F
NEWPORT NEWS   CLEAR     43  37  79 CALM      29.95S
LANGLEY AFB    CLEAR     44  39  82 SW2       29.94S
FORT EUSTIS    CLEAR     45  42  86 E2        29.93S
WILLIAMSBURG*  PTCLDY    46  43  87 CALM      29.95F
HR EXEC AP*    FAIR      39  37  93 CALM      29.96S
FRANKLIN*      PTCLDY    39  37  90 CALM      29.95S
WAKEFIELD      PTCLDY    42  39  89 CALM      29.95S
$$

VAZ020-022-025-037-045-250800-
WEST CENTRAL AND SOUTHWEST VIRGINIA

CITY           SKY/WX    TMP DP  RH WIND       PRES   REMARKS
STAUNTON*      PTCLDY    39  30  69 CALM      29.96F
WAYNESBORO*    CLOUDY    42  30  61 CALM      29.94F
HOT SPRINGS VA MOCLDY    41  13  31 CALM      29.90F
LYNCHBURG      CLOUDY    48  32  53 CALM      29.94F
DANVILLE       CLOUDY    47  39  74 E3        29.93F
SOUTH BOSTON*  FAIR      41  40  94 CALM      29.94R
MARTINSVILLE   CLOUDY    43  43 100 CALM      29.94F
ROANOKE        CLOUDY    46  31  55 W3        29.95S
BLACKSBURG     CLOUDY    45  31  57 CALM      29.94F
DUBLIN*        CLOUDY    47  31  53 CALM      29.94S
MARION*        CLOUDY    48  33  57 CALM      29.93F
HILLSVILLE*    CLOUDY    47  26  42 N3        29.92F
RICHLANDS*     CLOUDY    51 -16   6 CALM      29.91F
WISE*          CLOUDY    52  32  46 S5        29.91F
ABINGDON*      CLOUDY    52  38  59 CALM      29.91F
$$

MDZ021>025-VAZ099-100-250800-
SOUTHERN MARYLAND AND THE DELMARVA PENINSULA

CITY           SKY/WX    TMP DP  RH WIND       PRES   REMARKS
PATUXENT RIVER CLEAR     39  33  79 NW7       29.95R
BAY BRIDGE APT   N/A    N/A N/A N/A E6        29.97R
LEONARDTOWN    CLEAR     37  28  70 CALM      29.97S
DOVER          CLEAR     38  27  64 NE7       29.93S
GEORGETOWN     CLEAR     40  32  73 NE5       29.97R
EASTON         CLEAR     44  30  57 E6        30.00R
CAMBRIDGE      CLEAR     52  23  32 N8        29.95S
SALISBURY      CLEAR     36  30  79 NE5       29.95R
OCEAN CITY     CLEAR     45  35  68 NE9       29.96R
WALLOPS ISLAND CLEAR     43  33  68 W3        29.96R
ACCOMACK*      CLEAR     39  34  81 CALM      29.95S
$$

NCZ012>017-030>032-250800-
NORTH CENTRAL AND EASTERN NORTH CAROLINA

CITY           SKY/WX    TMP DP  RH WIND       PRES   REMARKS
ROANOKE RAPIDS FAIR      41  37  87 CALM      29.94R
RALEIGH        MOCLDY    47  39  74 CALM      29.93F
ELIZABETH CITY PTCLDY    51  47  86 E10       29.93S
AHOSKIE*       PTCLDY    43  38  82 N5        29.95R
EDENTON*       PTCLDY    56  40  53 SW5       29.92S
CURRITUCK*     PTCLDY    51  41  67 E3        29.95S
KILL DEVIL HLS PTCLDY    50  44  79 E3        29.93R
MANTEO         PTCLDY    49  44  83 CALM      29.94S
CAPE HATTERAS  CLEAR     55  45  68 W8        29.93F
TARBORO*       FAIR      44  42  96 CALM      29.94S
GOLDSBORO      CLOUDY    48  43  82 CALM      29.92S
WASHINGTON     CLEAR     49  40  71 CALM      29.93F
GREENVILLE     CLEAR     50  41  71 CALM      29.95S
NEW BERN       CLEAR     47  42  83 SW6       29.95F
WILMINGTON     MOCLDY    54  48  80 CALM      29.95F
$$

VAZ048-250800-
ELSEWHERE

CITY           SKY/WX    TMP DP  RH WIND       PRES   REMARKS
HARRISBURG PA  PTCLDY    35  19  52 CALM      29.96S
BALTIMORE      PTCLDY    35  29  78 CALM      29.97R
ANNAPOLIS      CLEAR     48  32  53 N6        29.96S
ANDREWS AFB    CLEAR     43  25  48 N6        29.95F
PHILADELPHIA   CLEAR     42  21  43 NW5       29.98S
HENDERSON NC   PTCLDY    45  38  77 CALM      29.93F
GREENSBORO     MOCLDY    53  36  52 CALM      29.90F
ROCKY MOUNT    CLEAR     46  41  82 CALM      29.93F
$$

VAZ100-250800-
MARINE

STATION/POSITION TIME  TEMP    WIND        PRES    WAVE   SWELL
                       AIR SEA DIR/SP/G            HT/PER HT/PER
                 (UTC) (F)     (DEG/KT/KT) (MB)    (FT/S) (FT/S)
BRANDYWINE LGT   0612   45 52   60/ 15/ 19 1014.6R
CAPE MAY NJ      0600   44 56   40/  4/  7 1014.3R
LEWES DE         0600   47 52   90/ 13/ 15 1014.3R
15NM E FENWICK I 0650   45 46              1013.7R   2/14
OCEAN-CITY-INLET 0600   47     330/  5/  6 1013.5R
WACHAPREAGUE VA  0600   47 58  260/  4/  6 1014.1F
THOMAS POINT MD  0700   51 52  360/ 14/ 16 1015.1F
GOOSES REEF MD   0700   52 53   20/ 12/ 14   N/A     2/ 2
COVE POINT MD    0600   51     340/  7/  8 1014.8S
SOLOMONS ISLAND  0600      55                N/A
BISHOPS HEAD MD  0600   49 54  350/  5/  7 1013.4F
PINEY POINT MD   0600           30/  6/  7   N/A
CAMBRIDGE MD     0600   53 59   10/  8/ 11 1014.0F
LEWISETTA VA     0600   49 57              1014.0F
RAPPAHANNOCK LGT 0600          220/  6/  7 1014.8F
YORK RVR RNG VA  0600   56     170/  5/  6 1013.6F
YORKTOWN VA      0600   51     160/  2/  3 1013.8F
JAMESTOWN VA     0700   51 65  110/  2/  4 1013.1F
DOMINION TERM VA 0600   54     130/ 12/ 14 1014.0F
KIPTOPEKE VA     0600      62  130/  3/  5   N/A
CHES BAY BRIDGE  0600   53     150/  9/ 12 1013.6F
CAPE HENRY VA    0600   50     180/  7/  9 1012.8F
CHESAPEAKE LGHT  0600   51     180/ 13/ 14 1014.5F
WILLOUBY STN VA  0600   53     140/ 13/ 14 1014.5F
S CRANEY ISL VA  0600          110/  8/ 10 1014.0F
CAPE HENRY BUOY  0628      52                N/A     2/13   2/13
OFFSHORE WE BUOY 0611      50                N/A     2/11   2/11
64NM E OF VA BCH 0650   55 62  220/  8/ 10 1013.7F   2/14   2/14
DUCK PIER NC     0600   52     120/ 11/ 12 1012.9F
44056 DUCK FRF   0611      54                N/A     2/14   2/14
OREGON INLET NC  0600   51 61  100/  4/  6 1013.8F
HATTERAS NC      0600   60     240/  8/ 12 1013.5F
DIAMOND SHLS NC  0650   64 72  250/ 16/ 17 1013.5F   4/ 9   3/ 9
CAPE LOOKOUT NC  0700   61     260/  5/  6 1013.7F
$$


USA.gov is the U.S. government's official web portal to all federal, state and local government web resources and services.